Location: Newark
(46.7000°N, 60.6000°W)
Time: 09:16:36
(UTC+00:00)

Transit 2A Rocket - Pass Details

Date: 05 November 2020
Orbit: 588 x 915 km, 66.7° (Epoch: 23 November)

Event Time Altitude Azimuth Distance (km) Brightness Sun altitude
Rises 11:48:32 0° 210° (SSW) 3,536 8.5 7.9°
Reaches altitude 10° 11:51:04 10° 209° (SSW) 2,594 7.8 8.2°
Maximum altitude 11:57:09 85° 124° (SE) 901 5.7 9.1°
Drops below altitude 10° 12:03:01 10° 35° (NE) 2,492 7.7 9.9°
Sets 12:05:25 0° 35° (NE) 3,389 8.3 10.2°
